Погода в Вознесенье

Россия / Ивановская область     56°35′31″N   41°01′10″E
темп.,
°C
ветер,
м/с
пор.,
м/с
влажн.,
%
обл.,
%
осадки,
мм/ч
давл.,
гПа
погр.,
м
23 октября, сб
сб2300:00+6зюз613695 0.0 1000778
03:00+5юз61374100 0.0 1002745
06:00+5юз61379100 0.0 1002707
09:00+6юз5117692 0.0 1003992
12:00+8юз61067100 0.0 10041241
15:00+7юз5965100 0.1 10041261
18:00+6юз5117192 0.1 1005854
21:00+4зюз498213 0.3 1006349
24 октября, вс
вс2400:00+3зюз411855 0.0 1007367
03:00+2зюз410935 0.0 1008308
06:00+3зюз3883100 0.0 1008649
09:00+3юз4795100 0.3 1008615
12:00+4з4689100 1.0 1009793
15:00+2з4796100 1.6 1010501
18:00+2сз4998100 0.9 1012611
21:00+1ссз61293100 1.4 1015846
25 октября, пн
пн2500:000ссз7127797 0.1 1018979
03:00−1ссз513858 0.1 1021641
06:00−2ссз411855 0.0 1024446
09:00−1ссз49785 0.0 1026456
12:00+2сз34575 0.0 1027757
15:00+3зсз345852 0.0 1027813
18:000юз3776100 0.0 1027148
21:00+1юз41169100 0.0 1026447
26 октября, вт
вт2600:00+1юз5127075 0.0 1025434
03:00+1юз5127494 0.0 1024459
06:00−1юз5128366 0.0 1023388
09:00+1юз51278100 0.0 1022463
12:00+4зюз61266100 0.0 1021595
15:00+5зюз51267100 0.0 1019656
18:00+3юз51372100 0.0 1019449
21:00+2юз51274100 0.0 1019433
27 октября, ср
ср2700:00+2юз51279100 0.0 1018373
03:00+1юз41183100 0.0 1017342
06:00+1юз41182100 0.0 1016366
09:00+3юз51276100 0.0 1015482
12:00+5юз51268100 0.0 1014631
15:00+5зюз51068100 0.0 1013730
18:00+4зюз4983100 0.1 1013567
21:00+4зюз4992100 0.4 1013436